Location: Unspecified
(50.7693°N, 0.0000°E)
Time: 06:58:23
(UTC+00:00)

Transit 2A - Pass Details

Date: 22 August 2020
Orbit: 591 x 967 km, 66.7° (Epoch: 20 September)

Event Time Altitude Azimuth Distance (km) Brightness Sun altitude
Rises 22:36:11 0° 312° (NW) 3,654 10.6 -25.1°
Reaches altitude 10° 22:39:26 10° 327° (NNW) 2,717 9.8 -25.3°
Maximum altitude 22:44:16 22° 16° (NNE) 1,984 8.6 -25.6°
Drops below altitude 10° 22:49:01 10° 66° (ENE) 2,664 8.8 -25.8°
Sets 22:52:09 0° 81° (E) 3,564 9.4 -26.0°
